TimeEST,TemperatureF,Dew PointF,Humidity,Sea Level PressureIn,VisibilityMPH,Wind Direction,Wind SpeedMPH,Gust SpeedMPH,PrecipitationIn,Events,Conditions,WindDirDegrees,DateUTC
12:54 AM,30.0,25.0,82,29.63,8.0,NW,4.6,-,N/A,,Overcast,320,2013-02-13 05:54:00
1:19 AM,30.2,24.8,80,29.60,6.0,NW,4.6,-,0.00,Snow,Light Snow,320,2013-02-13 06:19:00
1:54 AM,30.0,26.1,85,29.64,7.0,WNW,3.5,-,0.00,Snow,Light Snow,290,2013-02-13 06:54:00
2:54 AM,28.9,25.0,85,29.63,7.0,NNW,4.6,-,0.00,Snow,Light Snow,340,2013-02-13 07:54:00
3:54 AM,28.9,25.0,85,29.64,10.0,NW,5.8,-,0.00,,Overcast,320,2013-02-13 08:54:00
4:54 AM,28.9,25.0,85,29.65,10.0,Calm,Calm,-,N/A,,Overcast,0,2013-02-13 09:54:00
5:54 AM,28.9,25.0,85,29.66,10.0,North,3.5,-,N/A,,Overcast,360,2013-02-13 10:54:00
6:54 AM,28.0,23.0,81,29.68,10.0,North,6.9,-,N/A,,Overcast,10,2013-02-13 11:54:00
7:54 AM,27.0,21.9,81,29.70,10.0,North,3.5,-,N/A,,Overcast,350,2013-02-13 12:54:00
8:06 AM,26.6,21.2,80,29.67,7.0,North,4.6,-,N/A,Snow,Light Snow,350,2013-02-13 13:06:00
8:54 AM,27.0,23.0,85,29.70,7.0,North,4.6,-,0.00,Snow,Light Snow,10,2013-02-13 13:54:00
9:54 AM,27.0,21.0,78,29.72,9.0,NNW,4.6,-,0.00,Snow,Light Snow,340,2013-02-13 14:54:00
10:54 AM,28.0,21.0,75,29.72,10.0,NW,4.6,-,0.00,,Overcast,310,2013-02-13 15:54:00
11:54 AM,28.0,21.9,78,29.71,9.0,WNW,6.9,-,N/A,,Overcast,290,2013-02-13 16:54:00
12:49 PM,28.4,23.0,80,29.67,10.0,WNW,5.8,-,0.00,,Overcast,290,2013-02-13 17:49:00
12:54 PM,28.9,23.0,78,29.70,10.0,West,4.6,-,0.00,,Overcast,270,2013-02-13 17:54:00
1:19 PM,28.4,21.2,74,29.67,10.0,Variable,5.8,-,N/A,,Overcast,0,2013-02-13 18:19:00
1:54 PM,28.9,21.9,75,29.70,10.0,West,5.8,-,N/A,,Overcast,280,2013-02-13 18:54:00
2:54 PM,28.9,21.0,72,29.71,10.0,NW,6.9,-,N/A,,Overcast,310,2013-02-13 19:54:00
3:54 PM,28.9,21.0,72,29.71,10.0,NW,3.5,-,N/A,,Overcast,310,2013-02-13 20:54:00
4:54 PM,28.9,21.0,72,29.72,10.0,Calm,Calm,-,N/A,,Overcast,0,2013-02-13 21:54:00
5:54 PM,28.0,21.0,75,29.73,10.0,Calm,Calm,-,N/A,,Overcast,0,2013-02-13 22:54:00
6:54 PM,28.0,21.0,75,29.73,10.0,NW,3.5,-,N/A,,Overcast,310,2013-02-13 23:54:00
7:24 PM,28.4,19.4,69,29.70,10.0,WNW,4.6,-,N/A,,Overcast,290,2013-02-14 00:24:00
7:49 PM,28.4,19.4,69,29.70,10.0,WNW,5.8,-,N/A,,Overcast,300,2013-02-14 00:49:00
7:54 PM,28.0,19.0,69,29.74,10.0,WNW,6.9,-,N/A,,Overcast,300,2013-02-14 00:54:00
8:54 PM,28.0,19.0,69,29.75,10.0,Calm,Calm,-,N/A,,Overcast,0,2013-02-14 01:54:00
9:54 PM,27.0,19.0,72,29.76,10.0,WSW,3.5,-,N/A,,Overcast,250,2013-02-14 02:54:00
10:54 PM,27.0,19.0,72,29.75,10.0,Calm,Calm,-,N/A,,Overcast,0,2013-02-14 03:54:00
11:54 PM,27.0,19.9,75,29.75,6.0,WNW,5.8,-,0.00,Snow,Light Snow,300,2013-02-14 04:54:00